Regional Weather Roundup
Issued by NWS Cleveland, OH

Home | Current Version | Previous Version | Text Only | Print | Product List | Glossary Off
Versions: 1 2 3 4 5 6 7 8 9 10 11 12 13 14 15 16 17 18 19 20 21 22 23 24 25 26 27 28 29 30 31 32 33 34 35 36 37 38 39 40 41 42 43 44 45 46 47 48 49 50

429
ASUS41 KCLE 292212
RWRCLE
OHIO REGIONAL WEATHER ROUNDUP
NATIONAL WEATHER SERVICE WILMINGTON, OH
600 PM EDT MON AUG 29 2016

NOTE: "FAIR" INDICATES FEW OR NO CLOUDS BELOW 12,000 FEET WITH NO
SIGNIFICANT WEATHER AND/OR OBSTRUCTIONS TO VISIBILITY.

OHZ001>008-015>018-024>027-034-035-043-044-292300-
   NORTHWEST OHIO

CITY           SKY/WX    TMP DP  RH WIND       PRES   REMARKS
DEFIANCE       FAIR      84  68  58 NE5       30.20F
FINDLAY        FAIR      86  64  47 N9        30.19F
TOLEDO EXPRESS FAIR      82  67  60 E6        30.20F
TOLEDO EXEC    FAIR      80  67  64 E6        30.22F
LIMA           FAIR      84  69  60 E6        30.19F
$$

OHZ009>014-019>023-028>033-038-089-292300-
   NORTHEAST OHIO

CITY           SKY/WX    TMP DP  RH WIND       PRES   REMARKS
CLE-HOPKINS    FAIR      80  59  48 N13       30.23F
CLE-LAKEFRONT  FAIR      78  61  55 NE13      30.21F
CUY CO. ARPT   SUNNY     81  61  50 NE8       30.23F
LORAIN-ELYRIA  FAIR      79  60  52 NE7       30.22F
ASHTABULA      FAIR      76  57  51 NE7       30.24S
AKRON-CANTON   FAIR      84  55  36 E7        30.20F
WOOSTER        FAIR      83  63  50 NE5       30.21F
MANSFIELD      FAIR      84  64  50 N12       30.21F
YOUNGSTOWN     FAIR      82  56  40 N9        30.21F
$$

OHZ042-051>053-060>062-070>072-077>081-292300-
  SOUTHWEST OHIO

CITY           SKY/WX    TMP DP  RH WIND       PRES   REMARKS
CINC-COVINGTON PTSUNNY   86  71  60 NE12      30.16F HX  91
CINC-LUNKEN    FAIR      84  74  71 NE5       30.14F HX  91
HAMILTON       FAIR      89  68  49 NE8       30.16F HX  93
DAYTON         FAIR      85  68  56 NE9       30.19F
WRIGHT-PAT AFB FAIR      87  66  48 NE7       30.17F
DAYTON GENERAL FAIR      86  68  54 E5        30.16F
WILMINGTON     FAIR      85  70  60 N8        30.17F
$$

OHZ036-037-039>041-045>050-054>059-063>069-073>076-082>088-292300-
  CENTRAL AND SOUTHEAST OHIO

CITY           SKY/WX    TMP DP  RH WIND       PRES   REMARKS
COLUMBUS       FAIR      85  67  54 NE8       30.17F
OSU AIRPORT    FAIR      86  67  52 N7        30.17F
BOLTON FIELD   MOSUNNY   86  70  58 NE3       30.18F HX  90
RICKENBACK AFB FAIR      85  68  56 NE6       30.16F
NEWARK         FAIR      87  64  46 N5        30.17F
MARION         FAIR      85  66  53 N9        30.20F
LANCASTER      FAIR      86  69  56 NE6       30.17F HX  90
ZANESVILLE     FAIR      86  65  49 N6        30.17F
NEW PHILLY     FAIR      89  54  30 NE7       30.19F
$$




USA.gov is the U.S. government's official web portal to all federal, state and local government web resources and services.